Starlink 32465

operational
NORAD ID: 61716 Int'l Des: 2024-196 Owner: SPXS Country: US Constellation: starlink
LEOCIRCULAR

Über Starlink 32465

Beschreibung wird geladen...

Live-Position

3D-Globus wird geladen...

Nächste Überflüge

Höhenverlauf

Altitude vs Time

uPlot chart will show altitude changes over time

Zweizeiliger Elementsatz

1 61716U 24196K 25306.39760682 .00000812 00000-0 39540-4 0 9996
2 61716 53.1610 332.8811 0001316 90.3758 269.7394 15.30187295 57663
Epoch: 2. Nov. 2025 • Age: 24 hours

Aktueller Status

Höhe 482.4 km
Geschwindigkeit 7.62 km/s
Subsatellitenpunkt -23.59°S, 25.31°W
Startdatum 30. Okt. 2024
Alter 1 years
Typ internet

Technische Details

Klassifizierung Payload
Masse 730.00 kg
Trockenmasse 700.00 kg
Gesamtmasse 730.00 kg
Länge 0.30 m
Durchmesser 4.10 m
Spannweite 29.00 m
Form Box + pan
Hersteller SPXS
Bus-Typ Starlink V2M
Phasenstatus In Orbit
Besitzer/Staat SPXS/US

Große Konstellationen

Loading constellations...